TimePST,TemperatureF,Dew PointF,Humidity,Sea Level PressureIn,VisibilityMPH,Wind Direction,Wind SpeedMPH,Gust SpeedMPH,PrecipitationIn,Events,Conditions,WindDirDegrees,DateUTC
12:56 AM,37.9,17.1,43,30.22,10.0,WSW,5.8,-,N/A,,Clear,240,2013-01-06 08:56:00
1:56 AM,37.9,16.0,41,30.21,10.0,West,5.8,-,N/A,,Clear,270,2013-01-06 09:56:00
2:56 AM,42.1,14.0,32,30.19,10.0,SW,5.8,-,N/A,,Clear,230,2013-01-06 10:56:00
3:56 AM,41.0,17.1,38,30.18,10.0,WSW,5.8,-,N/A,,Clear,240,2013-01-06 11:56:00
4:56 AM,37.9,16.0,41,30.18,10.0,WSW,6.9,-,N/A,,Clear,240,2013-01-06 12:56:00
5:56 AM,37.9,18.0,45,30.17,10.0,SW,5.8,-,N/A,,Clear,220,2013-01-06 13:56:00
6:56 AM,36.0,18.0,48,30.16,10.0,Calm,Calm,-,0.00,,Clear,0,2013-01-06 14:56:00
7:56 AM,41.0,19.0,41,30.18,10.0,West,4.6,-,N/A,,Clear,270,2013-01-06 15:56:00
8:56 AM,48.9,16.0,27,30.18,10.0,Calm,Calm,-,N/A,,Clear,0,2013-01-06 16:56:00
9:56 AM,57.9,26.1,30,30.16,10.0,Calm,Calm,-,N/A,,Clear,0,2013-01-06 17:56:00
10:56 AM,64.0,37.9,38,30.13,10.0,West,8.1,-,N/A,,Clear,260,2013-01-06 18:56:00
11:56 AM,66.0,28.9,25,30.10,10.0,NNW,4.6,-,0.00,,Clear,330,2013-01-06 19:56:00
12:56 PM,64.9,33.1,31,30.07,10.0,NW,12.7,-,N/A,,Clear,310,2013-01-06 20:56:00
1:56 PM,66.0,30.0,26,30.06,10.0,WSW,11.5,-,N/A,,Clear,250,2013-01-06 21:56:00
2:56 PM,66.0,28.9,25,30.05,10.0,WNW,20.7,28.8,0.00,Rain,Light Rain,300,2013-01-06 22:56:00
3:56 PM,64.0,30.0,28,30.05,10.0,West,21.9,-,0.00,,Clear,280,2013-01-06 23:56:00
4:56 PM,59.0,30.9,35,30.05,10.0,West,16.1,-,N/A,,Partly Cloudy,270,2013-01-07 00:56:00
5:56 PM,57.0,30.0,36,30.06,10.0,West,16.1,-,N/A,,Clear,260,2013-01-07 01:56:00
6:56 PM,53.1,33.1,47,30.05,10.0,SW,11.5,-,N/A,,Clear,230,2013-01-07 02:56:00
7:56 PM,52.0,33.1,49,30.05,10.0,WSW,10.4,-,N/A,,Clear,250,2013-01-07 03:56:00
8:56 PM,53.1,35.1,50,30.04,10.0,WSW,15.0,-,N/A,,Clear,250,2013-01-07 04:56:00
9:56 PM,52.0,35.1,53,30.04,10.0,West,10.4,-,N/A,,Clear,260,2013-01-07 05:56:00
10:56 PM,53.1,37.0,55,30.04,10.0,West,9.2,-,N/A,,Scattered Clouds,270,2013-01-07 06:56:00
11:56 PM,53.1,39.9,61,30.04,10.0,WSW,23.0,27.6,0.00,Rain,Light Rain,250,2013-01-07 07:56:00